Погода в Подлесном

Россия / Ставропольский край     45°45′05″N   42°06′32″E
темп.,
°C
ветер,
м/с
пор.,
м/с
влажн.,
%
обл.,
%
осадки,
мм/ч
давл.,
гПа
погр.,
м
9 мая, вс
вс900:00+14юв477989 0.0 1009102
03:00+14ююз3477100 0.1 100956
06:00+13з4987100 0.5 1010254
09:00+14зюз51087100 0.6 1010729
12:00+11сз81193100 2.5 1011564
15:00+8зсз81294100 7.8 10151066
18:00+9зсз61089100 2.6 1018857
21:00+7з4991100 2.9 1020294
10 мая, пн
пн1000:00+6з489396 0.3 1021229
03:00+7зюз6118699 0.4 1021409
06:00+6зюз611935 0.0 1021382
09:00+10зсз711665 0.3 10211408
12:00+12зсз91158100 0.6 10191953
15:00+10зсз81275100 1.5 10191388
18:00+9з81282100 0.6 10191091
21:00+8зюз81382100 0.7 1018761
11 мая, вт
вт1100:00+7зюз81382100 0.1 10171036
03:00+7юз71575100 0.3 10161056
06:00+8юз81570100 0.1 10161229
09:00+10юз71363100 0.4 10171457
12:00+13ююв7962100 0.1 10171590
15:00+13юв6762100 0.5 10181626
18:00+12юв4872100 0.6 1018291
21:00+9вюв3586100 0.9 101999
12 мая, ср
ср1200:00+9ссв2286100 0.0 101844
03:00+9св4791100 0.1 1018152
06:00+9всв3689100 0.0 1018161
09:00+14вюв56625 0.0 1017738
12:00+18вюв55565 0.0 10171362
15:00+20вюв455158 0.0 10171633
18:00+19в356849 0.0 1016165
21:00+13в47820 0.0 101693
13 мая, чт
чт1300:00+12в47821 0.0 101691
03:00+11вюв46850 0.0 101596
06:00+12в48851 0.0 1015172
09:00+19вюв6106654 0.0 1015684
12:00+23вюв6856100 0.0 10151075
15:00+24вюв675329 0.0 10141171
18:00+22в496931 0.0 1014270
21:00+17вюв487851 0.0 1014115